Sedalia, MO

2:36 PM CST on December 06, 2019 (GMT -0600)
Sedalia Memorial

Weather History for KDMO - October, 2019

Change the Weather History Date:

Sunday, October 20, 2019

  Actual Average Record
Temperature  
Mean Temperature 53 °F 57 °F  
Max Temperature 63 °F 67 °F 86 °F (1963)
Min Temperature 43 °F 47 °F 22 °F (1972)
Degree Days  
Heating Degree Days 12 9  
Month to date heating degree days 200 130  
Since 1 July heating degree days 202 175  
Cooling Degree Days 0 1  
Month to date cooling degree days 22 30  
Year to date cooling degree days 1146 1480  
Growing Degree Days 3 (Base 50)    
Moisture  
Dew Point 50 °F    
Average Humidity 84    
Maximum Humidity 100    
Minimum Humidity 67    
Precipitation  
Precipitation 0.08 in 0.13 in 0.88 in (1983)
Month to date precipitation 2.72 2.55  
Year to date precipitation 40.80 34.60  
Sea Level Pressure  
Sea Level Pressure 29.82 in    
Wind  
Wind Speed 9 mph (SE)    
Max Wind Speed 18 mph    
Max Gust Speed 24 mph    
Visibility 6 miles    
Events Fog    
T = Trace of Precipitation, MM = Missing Value Source: NWS Daily Summary

Daily Weather History Graph

Daily Weather History Graph

Search for Another Location

Airport or City:

Astronomy

Oct. 20, 2019 Rise Set
Actual Time 7:26 AM CDT 6:27 PM CDT
Civil Twilight 6:59 AM CDT 6:54 PM CDT
Nautical Twilight 6:28 AM CDT 7:25 PM CDT
Astronomical Twilight 5:58 AM CDT 7:56 PM CDT
Moon 11:39 PM CDT (10/20) 1:52 PM CDT (10/20)
Length of Visible Light 11h 54m
Length of Day
11h 00m
Waning Gibbous, 59% of the Moon is Illuminated
Oct 20
Waning Gibbous
Oct 21
Last Quarter
Oct 27
New
Nov 4
First Quarter
Nov 12
Full

Hourly Weather History & Observations

Time (CDT) Temp. Windchill Dew Point Humidity Pressure Visibility Wind Dir Wind Speed Gust Speed Precip Events Conditions
12:53 AM 46.0 °F - 46.0 °F 100% 29.87 in 0.2 mi Calm Calm - N/A Fog Fog
1:53 AM 43.0 °F 41.3 °F 43.0 °F 100% 29.87 in 0.5 mi SSW 3.5 mph - N/A Fog Fog
2:53 AM 45.0 °F 41.8 °F 45.0 °F 100% 29.87 in 0.5 mi SSW 5.8 mph - N/A Fog Fog
3:53 AM 44.1 °F 40.8 °F 43.0 °F 96% 29.86 in 0.2 mi SSW 5.8 mph - N/A Fog Fog
4:53 AM 43.0 °F 41.3 °F 43.0 °F 100% 29.87 in 0.2 mi South 3.5 mph - N/A Fog Fog
5:53 AM 43.0 °F - 43.0 °F 100% 29.88 in 0.2 mi Calm Calm - N/A Fog Fog
6:53 AM 43.0 °F 41.3 °F 43.0 °F 100% 29.87 in 0.2 mi SE 3.5 mph - N/A Fog Fog
7:53 AM 43.0 °F - 43.0 °F 100% 29.88 in 0.2 mi Calm Calm - N/A Fog Fog
8:53 AM 45.0 °F 43.5 °F 45.0 °F 100% 29.90 in 0.2 mi East 3.5 mph - N/A Fog Fog
9:53 AM 48.9 °F - 48.9 °F 100% 29.90 in 0.2 mi ESE 8.1 mph - N/A Fog Fog
10:12 AM 51.1 °F - 51.1 °F 100% 29.90 in 1.2 mi ESE 6.9 mph - N/A   Overcast
10:15 AM 51.1 °F - 51.1 °F 100% 29.90 in 2.0 mi ESE 9.2 mph - N/A   Overcast
10:26 AM 52.0 °F - 52.0 °F 100% 29.90 in 4.0 mi East 5.8 mph - N/A   Overcast
10:53 AM 54.0 °F - 53.1 °F 97% 29.90 in 5.0 mi SE 9.2 mph - N/A   Scattered Clouds
11:53 AM 59.0 °F - 52.0 °F 78% 29.90 in 10.0 mi East 10.4 mph - N/A   Scattered Clouds
12:29 PM 57.0 °F - 50.0 °F 77% 29.89 in 10.0 mi SE 15.0 mph - N/A   Mostly Cloudy
12:53 PM 55.0 °F - 48.9 °F 80% 29.87 in 10.0 mi ESE 13.8 mph - N/A   Partly Cloudy
1:53 PM 60.1 °F - 50.0 °F 69% 29.83 in 10.0 mi ESE 12.7 mph 23.0 mph N/A   Partly Cloudy
2:53 PM 62.1 °F - 52.0 °F 70% 29.79 in 10.0 mi ESE 11.5 mph - N/A   Clear
3:53 PM 63.0 °F - 53.1 °F 70% 29.77 in 10.0 mi ESE 15.0 mph - N/A   Partly Cloudy
4:53 PM 61.0 °F - 54.0 °F 78% 29.75 in 10.0 mi ESE 12.7 mph - N/A   Partly Cloudy
5:53 PM 60.1 °F - 54.0 °F 80% 29.74 in 10.0 mi ESE 10.4 mph - N/A   Clear
6:53 PM 57.9 °F - 54.0 °F 87% 29.74 in 10.0 mi East 8.1 mph - N/A   Clear
7:53 PM 57.9 °F - 54.0 °F 87% 29.73 in 10.0 mi East 12.7 mph - N/A   Clear
8:53 PM 57.9 °F - 54.0 °F 87% 29.70 in 10.0 mi ESE 13.8 mph - N/A   Partly Cloudy
9:53 PM 59.0 °F - 55.0 °F 87% 29.65 in 10.0 mi ESE 13.8 mph - N/A   Clear
10:53 PM 60.1 °F - 55.0 °F 83% 29.62 in 10.0 mi SE 11.5 mph - N/A   Mostly Cloudy
11:53 PM 60.1 °F - 55.0 °F 83% 29.57 in 10.0 mi SE 13.8 mph 20.7 mph N/A   Clear